PulseSat

PulseSat

GSAT0209 (GALILEO 12)

Last updated on Feb. 16, 2019, 3:04 a.m. UTC

1 41174U 15079A   19044.93750169  .00000032  00000-0  00000-0 0  9992
2 41174  54.9370 174.9613 0003618 311.1609  48.7718  1.70473735 19256
UTC
Height (km)
Latitude
Longitude
Inclination
Orbital Period

Next 30 passes for location: Hong Kong

Rise time Rise Azimuth (degrees) Set time Set Azimuth (degrees) Duration Max altitude (degrees)

No matching passes for this satellites

PulseSat

PulseSat is the new satellites software and hardware trackering solution by Pulsely.
Satellite Two Line Element Set source: US Air Force Space Command

Download PulseSat for iOS
© 2017 Pulsely Limited